Regional Weather Roundup
Issued by NWS Albany, NY

Home | Current Version | Previous Version | Text Only | Print | Product List | Glossary On
Versions: 1 2 3 4 5 6 7 8 9 10 11 12 13 14 15 16 17 18 19 20 21 22 23 24 25 26 27
000
ASUS41 KALY 261610
RWRALY

NEW YORK STATE HOURLY WEATHER ROUNDUP
NATIONAL WEATHER SERVICE ALBANY NY
1200 PM EDT TUE JUL 26 2016

NOTE: "FAIR" INDICATES FEW OR NO CLOUDS BELOW 12,000 FEET WITH NO
SIGNIFICANT WEATHER AND/OR NO OBSTRUCTIONS TO VISIBILITY.

NYZ032-033-038>043-046>054-057>066-NYZ062>081-082-084-261700-
EAST


CITY           SKY/WX    TMP DP  RH WIND       PRES   REMARKS
ALBANY         MOSUNNY   81  62  52 NW14G21   29.90S
GLENS FALLS    CLOUDY    80  62  54 CALM      29.88R
POUGHKEEPSIE   PTSUNNY   85  64  49 W9        29.89S
NEWBURGH       PTSUNNY   82  68  61 W18       29.93S
MONTGOMERY     MOSUNNY   84  65  52 W13G22    29.91S
WHITE PLAINS   MOSUNNY   84  66  54 W9G18     29.91S
ISLIP          MOSUNNY   88  62  41 W12       29.89S
NEW YORK CITY  MOSUNNY   87  65  47 NW16      29.89F
CENTRAL PARK   SUNNY     86  70  58 MISG      29.93F HX  90
$$

NYZ005>009-017-018-044>046-055-056-261700-
CENTRAL


CITY           SKY/WX    TMP DP  RH WIND       PRES   REMARKS
FULTON         PTSUNNY   79  65  62 W14G20    29.97R
SYRACUSE       PTSUNNY   77  64  64 W8        29.96S
ROME           PTSUNNY   76  66  71 W13G18    29.96R
ELMIRA         MOSUNNY   80  59  48 VRB3      29.99S
BINGHAMTON     PTSUNNY   75  58  55 NW10G18   30.01R
MONTICELLO     PTSUNNY   79  64  61 W10G18    29.98S
$$

NYZ026>034-041>043-087-261700-
NORTH


CITY           SKY/WX    TMP DP  RH WIND       PRES   REMARKS
WATERTOWN      SUNNY     78  62  57 SW12      29.93R
FORT DRUM      NOT AVBL
MASSENA        PTSUNNY   77  62  59 W16       29.89R
SARANAC LAKE   MOSUNNY   74  57  55 W9G20     29.92R
PLATTSBURGH    CLOUDY    82  62  50 W12G18    29.84R
$$

NYZ001>004-010>016-019>021-085-261700-
WEST


CITY           SKY/WX    TMP DP  RH WIND       PRES   REMARKS
NIAGARA FALLS  MOSUNNY   79  60  52 NW9       30.02R
BUFFALO        MOSUNNY   77  60  55 W9        30.02S
DUNKIRK        SUNNY     75  62  64 W8        30.05R
JAMESTOWN      MOSUNNY   73  57  56 W6        30.08R
WELLSVILLE     SUNNY     77  59  53 NW8       30.08S
ROCHESTER      MOSUNNY   78  63  59 W13       30.00S
PENN YAN       MOSUNNY   79  62  56 NW8       30.01S
$$

             KEY
       WCI = WIND CHILL INDEX
       VSB = VISIBILITY
       HX  = HEAT INDEX
$$




USA.gov is the U.S. government's official web portal to all federal, state and local government web resources and services.